Regional Weather Roundup
Issued by NWS

Home | Current Version | Previous Version | Text Only | Print | Product List | Glossary Off
Versions: 1 2 3 4 5 6 7 8 9 10 11 12 13 14 15 16 17 18 19 20 21 22 23 24 25 26 27 28 29 30 31 32 33 34 35 36 37 38 39 40 41 42 43 44 45 46 47 48 49 50

475
ASUS43 KBIS 270002
RWRND

NORTH DAKOTA REGIONAL WEATHER ROUNDUP
NATIONAL WEATHER SERVICE BISMARCK ND
700 PM CDT FRI AUG 26 2016

NOTE: "FAIR" INDICATES FEW OR NO CLOUDS BELOW 12,000 FEET WITH NO
SIGNIFICANT WEATHER AND/OR OBSTRUCTIONS TO VISIBILITY.


NDZ001>003-009>011-017-270100-
NORTHWEST NORTH DAKOTA

CITY           SKY/WX    TMP DP  RH WIND       PRES   REMARKS
WILLISTON      CLOUDY    71  47  42 NW21G28   29.92S
6HR MIN TEMP:  69; 6HR MAX TEMP:  80;

MINOT          CLOUDY    69  49  48 S21G28    29.93F
MINOT AFB      SUNNY     69  50  50 S21G30    29.91F
$$

NDZ018>021-031>035-040>046-270100-
SOUTHWEST NORTH DAKOTA

CITY           SKY/WX    TMP DP  RH WIND       PRES   REMARKS
BISMARCK       CLOUDY    67  52  58 SE15      30.00F
6HR MIN TEMP:  67; 6HR MAX TEMP:  73;

DICKINSON      MOSUNNY   66  42  41 S8        29.96F
GARRISON         N/A     66  54  65 S12       29.96F
6HR MIN TEMP:  62; 6HR MAX TEMP:  76; 6HR PCP:  0.02;

HETTINGER ARPT CLOUDY    67  50  54 S8        30.02S
$$

NDZ004>008-012>016-024-026-027-054-270100-
NORTHEAST NORTH DAKOTA

CITY           SKY/WX    TMP DP  RH WIND       PRES   REMARKS
GRAND FORKS    CLOUDY    70  52  52 SW12      30.01S
GRND FRKS AFB  CLOUDY    69  52  53 SW13      30.02S
DEVILS LAKE    MOSUNNY   70  51  51 S21       30.00F
$$

NDZ022-023-025-028>030-036>039-047>053-270100-
SOUTHEAST NORTH DAKOTA

CITY           SKY/WX    TMP DP  RH WIND       PRES   REMARKS
FARGO          CLOUDY    67  51  56 SW9       30.05F
6HR MIN TEMP:  67; 6HR MAX TEMP:  77;

JAMESTOWN      CLOUDY    64  53  67 S6        30.04F
$$





USA.gov is the U.S. government's official web portal to all federal, state and local government web resources and services.